[[{"header":{"parameterUnit":"m.s-1","parameterCategory":1,"la1":30.2991,"la2":30.254,"lo1":-89.0895,"lo2":-89.0444,"dy":0.0017,"dx":0.0017,"nx":28,"ny":28,"refTime":"2025-07-20T21:00:00:Z","depth":0,"parameterNumber":2,"parameterNumberName":"U-component_of_WINDS"},"data":[0,0,0,0,0,0,0,0,0,0,0,0,0,0,0,0,0,0,0,0,0,0,0,0,0,0,0,0,0,0,0,0,0,0,0,0,0,0,0,0,0,0,0,0,0,0,0,0,0,0,0,0,0,0,0,0,0,0,3.2265,3.2267,0,3.2395,3.2396,3.2398,3.2364,3.2361,3.2359,3.2356,3.2492,3.2498,3.2504,0,0,0,0,0,0,0,0,0,0,0,0,0,3.1991,3.1997,3.2265,3.2267,3.2269,3.2395,3.2397,3.2398,3.2364,3.2361,3.2358,3.2355,3.249,3.2498,3.2505,0,0,0,0,0,0,0,0,0,0,0,0,0,3.2115,3.1998,3.2265,3.2267,3.2268,3.2394,3.2397,3.2399,3.2365,3.2361,3.2357,3.2354,3.2488,3.2497,3.2506,3.2639,0,0,3.2533,3.2537,0,0,0,0,0,0,0,0,3.2108,3.2125,3.2265,3.2267,3.2269,3.2359,3.235,3.248,3.2366,3.2328,3.2356,3.2352,3.2451,3.2463,3.2496,3.2646,3.2651,3.2534,3.254,3.2544,3.2546,0,0,0,0,0,0,0,3.2099,3.2119,3.2317,3.2267,3.2269,3.2262,3.2275,3.2374,3.241,3.2331,3.2329,3.2345,3.2452,3.2488,3.2499,3.2653,3.2534,3.2542,3.2548,3.2551,3.2919,3.2923,0,0,0,0,0,0,3.2089,3.2112,3.2313,3.2321,3.2177,3.227,3.2285,3.2334,3.2409,3.2417,3.2348,3.2343,3.2474,3.2489,3.2504,3.2665,3.2544,3.2552,3.2557,3.2915,3.292,3.2925,0,0,0,0,0,0,3.2083,3.2107,3.2307,3.2216,3.2241,3.2279,3.2335,3.2339,3.2374,3.2421,3.2428,3.2378,3.2472,3.2491,3.2606,3.2669,3.2556,3.2564,3.291,3.2916,3.2922,3.2988,0,0,0,0,0,0,3.2075,3.2105,3.2155,3.2217,3.2246,3.2406,3.2338,3.2344,3.239,3.2384,3.2451,3.2459,3.247,3.2592,3.2615,3.2679,3.2571,3.2904,3.2913,3.292,3.298,3.2996,3.3009,0,0,0,0,0,3.2066,3.2169,3.2158,3.2183,3.2309,3.241,3.2426,3.2436,3.2395,3.2446,3.2477,3.2456,3.2659,3.2604,3.2629,3.2698,3.29,3.291,3.292,3.2974,3.2993,3.3009,0,0,0,0,0,0,3.2115,3.2178,3.2166,3.2292,3.2346,3.2404,3.2469,3.2456,3.2523,3.2516,3.2526,3.2542,3.2659,3.269,3.2628,3.2831,3.2774,3.2789,3.2806,3.2825,3.2839,3.2829,3.2579,0,0,0,0,0,3.2141,3.2216,3.2267,3.2374,3.2401,3.2431,3.2475,3.2478,3.2534,3.2557,3.2596,3.2652,3.2728,3.2778,3.2851,3.2985,3.2999,3.3044,3.3059,3.307,3.3083,3.3157,3.3177,3.2957,3.2957,3.2957,0,0,3.2195,3.2238,3.2285,3.2385,3.2427,3.2506,3.245,3.2536,3.2594,3.257,3.268,3.2711,3.2775,3.2899,3.2956,3.2929,3.3148,3.3083,3.3092,3.3099,3.3169,3.319,3.3208,3.2964,3.2962,3.2961,0,0,3.2333,3.2373,3.2466,3.2509,3.2573,3.2592,3.2614,3.2674,3.2693,3.2804,3.2787,3.2858,3.2989,3.3035,3.3076,3.3231,3.3216,3.3255,3.3331,3.3402,3.3419,3.3435,3.349,3.351,3.3268,3.3268,3.3268,0,3.2392,3.2508,3.2516,3.2603,3.2648,3.2629,3.2724,3.2766,3.285,3.2882,3.285,3.3014,3.3056,3.3191,3.3229,3.3262,3.3289,3.3247,3.3416,3.3431,3.3446,3.3499,3.352,3.3272,3.3272,3.3272,3.3271,0,3.2578,3.2659,3.2727,3.2808,3.2861,3.2952,3.2974,3.3026,3.3025,3.3048,3.3161,3.321,3.3292,3.3325,3.3325,3.346,3.3441,3.3413,3.3355,3.3471,3.3521,3.3542,3.3279,3.3277,3.3276,3.3275,0,0,3.275,3.2834,3.2859,3.2896,3.2965,3.3028,3.3119,3.3198,3.3243,3.3302,3.3379,3.349,3.3464,3.351,3.3515,3.3578,3.3698,3.3541,3.3543,3.3569,3.385,3.3871,3.3894,3.3688,3.3692,3.3695,3.3845,0,3.2894,3.3052,3.3061,3.3204,3.328,3.3263,3.3342,3.3393,3.3417,3.3486,3.3512,3.3591,3.355,3.3578,3.3639,3.367,3.3755,3.366,3.376,3.3763,3.3743,3.392,3.3943,3.4082,3.3864,3.3868,3.387,0,3.3083,3.3146,3.3297,3.3355,3.3387,3.3458,3.3531,3.3597,3.3655,3.3668,3.3719,3.3716,3.3809,3.3749,3.3878,3.3814,3.3855,3.3877,3.3882,3.3892,3.3823,3.3934,3.4126,3.4147,3.3901,3.3899,3.3896,0,3.3193,3.3317,3.3423,3.3455,3.3525,3.3575,3.3607,3.3662,3.3709,3.3774,3.3804,3.388,3.3921,3.398,3.3998,3.3952,3.4127,3.4068,3.4141,3.414,3.4178,3.4175,3.4379,3.4205,3.4205,3.4205,3.4204,0,3.3352,3.3445,3.3473,3.3538,3.3642,3.3653,3.3755,3.3784,3.3833,3.3904,3.3895,3.3962,3.3981,3.4052,3.4066,3.4171,3.419,3.4204,3.4207,3.4205,3.4203,3.4232,3.4222,3.421,3.4209,3.4208,3.4207,0,3.3493,3.3515,3.3629,3.3687,3.3704,3.3777,3.3827,3.389,3.3912,3.4003,3.4024,3.406,3.4143,3.4166,3.4266,3.4276,3.44,3.4394,3.4379,3.4379,3.4451,3.4444,3.468,3.4712,3.4518,3.4519,3.4521,0,3.3592,3.3663,3.3728,3.3774,3.3808,3.3883,3.3931,3.3945,3.3995,3.4067,3.4122,3.4204,3.4269,3.4403,3.4439,3.4515,3.4511,3.4589,3.4523,3.4518,3.4512,3.4507,3.4514,3.4601,3.4603,3.4605,3.4606,0,3.3767,3.3775,3.3843,3.3917,3.3974,3.4032,3.4088,3.4127,3.4149,3.4206,3.429,3.4341,3.4443,3.4525,3.4602,3.4636,3.4626,3.4627,3.4647,3.4646,3.4635,3.4641,3.4413,3.4621,3.4619,3.4618,3.4618,3.4617,3.389,3.3952,3.4007,3.4084,3.4128,3.418,3.4242,3.4272,3.4342,3.4425,3.443,3.4521,3.4578,3.4681,3.4719,3.4792,3.4769,3.4799,3.4807,3.4814,3.482,3.4623,3.4806,3.4806,3.4805,3.4805,3.4805,0,3.4064,3.4099,3.417,3.4248,3.4308,3.4292,3.4353,3.4405,3.4486,3.4539,3.4604,3.4701,3.478,3.4822,3.4901,3.4951,3.4948,3.4971,3.4967,3.4975,3.4836,3.481,3.4972,3.4972,3.4972,3.4972,3.4972,3.4972,3.4162,3.4266,3.428,3.4406,3.444,3.4528,3.4565,3.4614,3.4657,3.4765,3.483,3.4856,3.4906,3.4988,3.506,3.507,3.51,3.5126,3.5133,3.5002,3.4985,3.4969,3.4944,3.5132,3.5132,3.5266,3.5268,3.5268]},{"header":{"parameterUnit":"m.s-1","parameterCategory":1,"la1":30.2991,"la2":30.254,"lo1":-89.0895,"lo2":-89.0444,"dy":0.0017,"dx":0.0017,"nx":28,"ny":28,"refTime":"2025-07-20T21:00:00:Z","depth":0,"parameterNumber":3,"parameterNumberName":"V-component_of_WINDS"},"data":[0,0,0,0,0,0,0,0,0,0,0,0,0,0,0,0,0,0,0,0,0,0,0,0,0,0,0,0,0,0,0,0,0,0,0,0,0,0,0,0,0,0,0,0,0,0,0,0,0,0,0,0,0,0,0,0,0,0,3.8646,3.8648,0,3.8839,3.8841,3.8843,3.887,3.8868,3.8866,3.8865,3.9058,3.9065,3.9071,0,0,0,0,0,0,0,0,0,0,0,0,0,3.8295,3.8302,3.8645,3.8648,3.865,3.8839,3.8841,3.8844,3.887,3.8868,3.8866,3.8864,3.9056,3.9064,3.9072,0,0,0,0,0,0,0,0,0,0,0,0,0,3.8464,3.8304,3.8645,3.8686,3.8692,3.8838,3.8841,3.8845,3.8871,3.8868,3.8865,3.8863,3.9053,3.9063,3.9073,3.919,0,0,3.9104,3.9109,0,0,0,0,0,0,0,0,3.8454,3.8476,3.8678,3.8684,3.869,3.8828,3.8789,3.896,3.8872,3.8803,3.8865,3.8862,3.8983,3.8999,3.9041,3.9199,3.9207,3.9105,3.9111,3.9116,3.9119,0,0,0,0,0,0,0,3.8442,3.8468,3.8722,3.8681,3.8688,3.8694,3.8715,3.8821,3.8906,3.8809,3.8811,3.8834,3.8986,3.9031,3.9046,3.921,3.9105,3.9114,3.912,3.9124,3.9473,3.9476,0,0,0,0,0,0,3.8424,3.8458,3.8716,3.8728,3.8563,3.8702,3.8726,3.8786,3.8905,3.892,3.8836,3.8834,3.9015,3.9034,3.9053,3.9197,3.9116,3.9125,3.9131,3.947,3.9474,3.9477,0,0,0,0,0,0,3.8416,3.8446,3.8708,3.8594,3.8628,3.8711,3.8779,3.8791,3.8837,3.8925,3.894,3.8867,3.9014,3.9038,3.9156,3.9204,3.913,3.9139,3.9466,3.9471,3.9476,3.9488,0,0,0,0,0,0,3.8406,3.8444,3.849,3.8595,3.8634,3.8809,3.8782,3.8797,3.8855,3.8855,3.8958,3.8973,3.9013,3.9141,3.9166,3.9217,3.9147,3.9462,3.9469,3.9474,3.9483,3.9492,3.95,0,0,0,0,0,3.8393,3.8485,3.8492,3.8523,3.8693,3.8812,3.8834,3.8881,3.8859,3.8905,3.8962,3.8969,3.9195,3.9152,3.9181,3.9236,3.946,3.9467,3.9474,3.948,3.949,3.95,0,0,0,0,0,0,3.8382,3.8499,3.8509,3.8637,3.8715,3.8817,3.8877,3.8891,3.8975,3.8971,3.9024,3.9047,3.9162,3.9211,3.9161,3.9355,3.9325,3.9338,3.932,3.9331,3.9339,3.9324,3.9156,0,0,0,0,0,3.8394,3.8482,3.8579,3.8683,3.8722,3.8792,3.8846,3.8875,3.8957,3.899,3.9055,3.9133,3.9222,3.9279,3.9365,3.949,3.9513,3.9542,3.955,3.9557,3.9567,3.9637,3.9651,3.95,3.95,3.95,0,0,3.8421,3.8496,3.8548,3.8683,3.8746,3.8835,3.882,3.8914,3.898,3.9003,3.9119,3.917,3.926,3.9382,3.9439,3.9426,3.9614,3.9566,3.957,3.9578,3.9646,3.966,3.9672,3.9505,3.9504,3.9504,0,0,3.8514,3.858,3.8674,3.8738,3.8835,3.8882,3.8904,3.9005,3.904,3.9157,3.9176,3.9254,3.9406,3.947,3.9522,3.9639,3.9649,3.9666,3.9709,3.9776,3.9788,3.9799,3.984,3.9855,3.9676,3.9676,3.9676,0,3.8534,3.8671,3.872,3.8814,3.8873,3.8899,3.8994,3.9053,3.9173,3.9212,3.9196,3.9387,3.945,3.9587,3.9616,3.9657,3.9683,3.9654,3.9782,3.9794,3.9804,3.9845,3.9861,3.9678,3.9677,3.9677,3.9677,0,3.869,3.8784,3.8848,3.8965,3.903,3.9124,3.9186,3.9246,3.927,3.9317,3.9436,3.9512,3.9614,3.9649,3.9672,3.979,3.9779,3.9772,3.9743,3.9819,3.9858,3.9874,3.968,3.9679,3.9679,3.9678,0,0,3.8782,3.8925,3.8948,3.9001,3.911,3.9183,3.9278,3.9379,3.943,3.9511,3.9591,3.9719,3.9714,3.9773,3.9803,3.9862,3.995,3.9848,3.9851,3.9864,4.0084,4.0088,4.0106,3.9957,3.996,3.9963,4.0076,0,3.8889,3.906,3.9107,3.9251,3.9338,3.9365,3.9447,3.9522,3.9569,3.9648,3.9699,3.9789,3.9775,3.9811,3.9871,3.9927,3.9995,3.9919,4.0031,4.0034,4.0008,4.0126,4.0131,4.0235,4.0092,4.0094,4.0096,0,3.9036,3.9122,3.9275,3.9374,3.9412,3.9485,3.9582,3.9658,3.9743,3.9773,3.9839,3.9864,3.9962,3.9928,4.0063,4.001,4.0059,4.0093,4.0098,4.011,4.007,4.0141,4.0269,4.0284,4.0121,4.0119,4.0117,0,3.9087,3.9241,3.9353,3.9398,3.9515,3.9566,3.9617,3.97,3.9758,3.9842,3.988,3.9973,4.0025,4.0096,4.0145,4.0115,4.0276,4.0245,4.0302,4.0301,4.0335,4.0332,4.0472,4.0366,4.0366,4.0365,4.0365,0,3.9201,3.9294,3.9378,3.9447,3.9551,3.9604,3.9705,3.9757,3.983,3.9908,3.9936,4.0008,4.0069,4.0149,4.0188,4.0294,4.0316,4.0342,4.0351,4.034,4.0337,4.0373,4.0367,4.037,4.0369,4.0368,4.0367,0,3.9277,3.9337,3.9461,3.9562,3.9589,3.9662,3.9748,3.9815,3.9863,3.9961,3.9987,4.0062,4.0158,4.0214,4.0334,4.036,4.0478,4.0483,4.045,4.0454,4.0508,4.0502,4.0676,4.0701,4.0578,4.0579,4.058,0,3.9346,3.9418,3.9527,3.9583,3.9635,3.9723,3.9783,3.9837,3.9898,4.0,4.0055,4.0153,4.0234,4.0385,4.0449,4.0541,4.055,4.0604,4.0563,4.055,4.0551,4.0546,4.0553,4.0611,4.0612,4.0613,4.0614,0,3.9461,3.9488,3.9574,3.9671,3.9742,3.982,3.9898,3.9941,4.0008,4.0074,4.0174,4.0237,4.0361,4.0457,4.0555,4.0605,4.0621,4.0626,4.0644,4.0633,4.0611,4.0624,4.0469,4.0622,4.0621,4.062,4.062,4.062,3.9536,3.9601,3.9689,3.9784,3.9848,3.992,3.9989,4.0046,4.013,4.0236,4.0262,4.0367,4.0449,4.0582,4.0635,4.0716,4.0707,4.0733,4.074,4.0745,4.0747,4.0598,4.0734,4.0734,4.0734,4.0734,4.0733,0,3.9653,3.9711,3.9798,3.9907,3.9981,3.9991,4.0077,4.0138,4.023,4.0307,4.0387,4.0501,4.0594,4.0666,4.0762,4.0813,4.0822,4.0836,4.0833,4.0844,4.075,4.0725,4.0827,4.0827,4.0827,4.0827,4.0827,4.0827,3.9723,3.9835,3.9871,4.0015,4.0071,4.0175,4.0224,4.029,4.0352,4.0478,4.0557,4.0604,4.0678,4.0779,4.0865,4.0884,4.0917,4.093,4.095,4.0861,4.0851,4.0841,4.0818,4.0937,4.0938,4.1037,4.1038,4.1039]}]]